Location: Chaudardes
(49.3913°N, 3.7909°E)
Time: 07:23:04
(UTC+00:00)

Daily predictions for brighter satellites

Satellite Brightness Start Highest point End
(mag) Time Altitude Azimuth Time Altitude Azimuth Time Altitude Azimuth
Cosmos 1656 3.9 17:47:02 10° SSW 17:52:39 83° WNW 17:58:22 10° NNE
CZ-4 R/B 2.4 17:50:32 10° SE 17:54:09 29° ENE 17:57:47 10° N
Spot 1 4.4 17:50:17 10° NNE 17:54:23 41° E 17:58:18 10° S
CZ-4B R/B 3.3 17:50:45 10° SE 17:55:56 55° ENE 18:01:17 10° N
CZ-4 R/B 4.4 17:52:59 10° SSE 17:57:05 84° ENE 18:01:13 10° NNW
Lacrosse 5 4.5 17:54:16 10° WNW 17:57:55 20° SW 18:01:33 10° S
Cosmos 2242 Rocket 4.1 17:53:38 10° NNW 17:58:01 67° W 18:02:23 10° S
Cosmos 1707 3.0 17:54:47 10° NNW 17:58:34 73° W 18:02:22 10° S
PAYLOAD B 4.2 17:54:24 10° SSE 17:59:55 80° ENE 18:05:27 10° NNW
Cosmos 1140 Rocket 4.4 17:55:06 10° SW 18:00:06 52° WNW 18:05:09 10° NNE
Cosmos 468 Rocket 4.0 17:55:48 10° NNW 18:00:59 80° ENE 18:06:10 10° SSE
Okean O Rocket 2.1 17:57:06 10° SE 18:01:09 40° ENE 18:05:16 10° N
Cosmos 2297 Rocket 3.4 17:56:25 10° NW 18:01:51 47° WSW 18:07:14 10° S
SJ-6B 4.4 18:02:38 10° E 18:04:53 16° ENE 18:07:09 10° NNE
Cosmos 1980 Rocket 2.8 18:00:07 10° SSE 18:05:05 33° ESE 18:10:03 10° NE
ATLAS 2AS CENTAUR R/B 4.2 18:00:39 10° W 18:07:35 36° NNW 18:14:13 10° NE
ASTEX 1 3.4 18:03:07 10° NNE 18:08:04 62° E 18:13:00 10° S
SKYMED 3 4.4 18:04:47 10° NNE 18:08:55 80° ESE 18:13:01 10° S
Cosmos 2369 4.2 18:05:12 10° S 18:10:27 39° ESE 18:15:43 10° NE
Cosmos 1626 2.2 18:07:23 10° NNW 18:11:01 80° W 18:14:38 10° S
USA 229 DEB 4.0 18:06:08 10° NW 18:13:29 90° NW 18:21:22 10° SE
USA 229 4.0 18:06:14 10° NW 18:13:35 89° ENE 18:21:28 10° SE
Cosmos 540 Rocket 3.4 18:10:42 10° NNW 18:15:50 79° ENE 18:20:56 10° SSE
Cosmos 1674 Rocket 4.0 18:14:27 10° N 18:18:37 40° ENE 18:22:48 10° SE
YAOGAN 1 2.5 18:15:08 10° SSE 18:19:25 70° ENE 18:23:45 10° N
SKYMED 2 4.0 18:15:20 10° N 18:19:41 69° WNW 18:23:59 10° SSW
Cosmos 1850 Rocket 4.4 18:17:57 10° S 18:22:47 40° ESE 18:27:41 10° NE
SL-16 R/B 3.8 18:20:31 10° ESE 18:22:50 13° E 18:25:10 10° ENE
Cosmos 841 Rocket 3.5 18:17:48 10° NNW 18:22:57 61° ENE 18:28:03 10° SE
SL-4 R/B 2.4 18:18:42 10° WNW 18:23:06 68° N 18:27:05 14° E
Cosmos 1437 Rocket 4.4 18:24:58 14° E 18:24:58 14° E 18:26:54 10° NE
OBJECT-B 1.6 18:25:24 17° E 18:26:18 21° ENE 18:28:21 10° NNE
Cosmos 1954 Rocket 4.3 18:24:46 10° SSW 18:29:55 70° WNW 18:35:06 10° NNE
Cosmos 1844 Rocket 4.2 18:26:57 10° N 18:31:07 20° NE 18:34:20 13° ENE
Cosmos 1763 Rocket 4.4 18:26:54 10° NNW 18:31:48 50° WSW 18:36:41 10° S
Cosmos 2279 Rocket 4.1 18:26:03 10° N 18:32:21 88° W 18:38:37 10° S
Meteor 2-10 4.3 18:26:55 10° S 18:32:26 54° E 18:37:49 10° NNE
H-2A R/B 4.1 18:32:31 14° ENE 18:33:20 15° ENE 18:35:33 10° NNE
ISS -3.8 18:31:09 10° WNW 18:34:31 87° NNE 18:36:41 20° ESE
Cosmos 2180 Rocket 4.5 18:29:11 10° N 18:35:26 77° E 18:41:43 10° SSE
Cosmos 2221 Rocket 3.6 18:31:01 10° N 18:35:33 79° E 18:40:06 10° SSE
Cosmos 2219 4.3 18:32:33 10° NW 18:38:03 47° WSW 18:43:31 10° S
SL-14 R/B 3.2 18:35:54 10° N 18:39:51 77° E 18:43:49 10° SSE
Aureole 1 4.2 18:38:30 10° SSW 18:41:31 85° WNW 18:44:54 10° NNE
Meteor 2-5 Rocket 4.3 18:37:24 10° N 18:42:30 35° ENE 18:46:13 16° SE
Cosmos 1975 Rocket 4.4 18:39:21 10° NNE 18:42:40 20° ENE 18:43:38 19° E
IRIDIUM 104 4.4 18:37:38 10° SSE 18:42:43 55° E 18:47:49 10° NNE
Resurs 01 Rocket 3.2 18:42:04 16° ENE 18:42:56 17° ENE 18:45:43 10° NNE
HJ-1C 3.7 18:40:15 10° S 18:43:21 63° WSW 18:46:28 10° NNW
NOSS 7 (H) 4.4 18:44:17 10° NW 18:47:28 79° NE 18:50:04 20° SE
Cosmos 1805 3.2 18:44:08 10° S 18:48:00 88° W 18:51:56 10° N
Cosmos 2227 4.5 18:42:42 10° NNW 18:48:12 50° NE 18:52:01 19° ESE
Cosmos 1378 Rocket 3.4 18:44:09 10° N 18:48:35 78° E 18:52:56 10° SSE
Cosmos 2263 Rocket 2.2 18:43:11 10° NNW 18:48:54 77° ENE 18:54:19 11° SSE
USA 186 2.2 18:49:21 24° SE 18:50:54 43° ENE 18:54:04 10° N
Cosmos 1741 Rocket 4.0 18:45:46 10° S 18:51:00 65° ESE 18:56:14 10° NNE
USA 215 3.8 18:45:13 10° ENE 18:51:35 56° NNW 18:57:56 10° W
IRIDIUM 114 4.3 18:46:41 10° S 18:51:50 66° E 18:57:02 10° N
IGS 5A 3.7 18:53:35 20° SE 18:56:10 47° ENE 19:00:10 10° N
Cosmos 2082 4.3 18:52:07 10° NW 18:57:44 58° WSW 19:03:20 10° S
Cosmos 1733 Rocket 3.5 18:55:41 10° SSW 19:00:04 65° WNW 19:04:32 10° N
Cosmos 1766 3.2 18:56:37 10° S 19:00:29 63° E 19:04:23 10° NNE
IRIDIUM 103 4.2 18:55:46 10° S 19:00:58 79° E 19:06:14 10° N
Meteor 2-14 Rocket 4.3 18:55:12 10° S 19:01:16 82° E 19:07:21 10° NNE
Cosmos 1242 Rocket 3.6 18:59:23 10° SSW 19:02:50 47° WNW 19:06:18 10° N
Okean-O 2.7 19:00:42 21° SE 19:03:27 55° ENE 19:07:47 10° N
Cosmos 1814 Rocket 4.0 18:58:11 10° NNW 19:03:28 69° ENE 19:07:02 21° SE
Cosmos 1726 2.0 19:02:07 10° S 19:05:45 88° W 19:09:26 10° N
Resurs 1-3 3.8 19:05:38 29° SE 19:07:30 48° ENE 19:11:44 10° N
Cosmos 1697 Rocket 3.6 19:03:40 10° SW 19:09:06 50° NW 19:14:36 10° NNE
CSL-04 Debris 4.1 19:06:20 10° SSE 19:11:45 81° ENE 19:17:11 10° NNW
Cosmos 2084 3.4 19:11:36 10° SW 19:15:23 67° NW 19:18:22 16° NE
IRS-1C Rocket 4.0 19:12:09 20° SSE 19:15:52 69° ENE 19:21:07 10° N
USA-17 4.4 19:12:46 10° NW 19:15:57 78° NE 19:16:45 51° ESE
Meteor 2-21 Rocket 4.3 19:11:04 10° S 19:17:07 77° E 19:23:10 10° NNE
IRIDIUM 106 4.5 19:14:05 10° S 19:19:17 75° W 19:24:32 10° N
Cosmos 2195 Rocket 4.5 19:15:49 10° S 19:21:52 58° E 19:28:01 10° NNE
USA 281 4.5 19:20:05 20° ENE 19:22:22 25° NE 19:27:27 10° N
Cosmos 489 Rocket 4.4 19:16:32 10° S 19:22:50 70° ESE 19:29:09 10° NNE
SPOT 1/Viking Rocket 4.1 19:22:41 35° E 19:23:38 39° ENE 19:28:24 10° N
Cosmos 1470 3.5 19:28:31 36° NE 19:28:31 36° NE 19:31:06 10° NNE
CZ-4 R/B 3.2 19:25:17 10° SSW 19:29:01 32° W 19:32:48 10° NNW
CRYOSAT 2 4.2 19:29:50 25° SSE 19:32:46 80° E 19:37:41 10° N
Cosmos 2285 Rocket 4.0 19:26:37 10° NNW 19:32:59 82° WSW 19:37:15 22° SSE
MINOTAUR IV R/B 4.5 19:29:03 10° SSW 19:33:34 86° ESE 19:38:06 10° NNE
Meteor 2-16 Rocket 4.4 19:28:50 10° S 19:34:58 87° E 19:41:10 10° N
Meteor 1-12 Rocket 4.4 19:29:14 10° SSW 19:35:13 84° WNW 19:41:18 10° N
deb Chang Zheng 4 3.3 19:35:02 63° E 19:35:14 64° ENE 19:39:21 10° N
Gbstr 26 Del rocket 4.5 19:27:39 10° SW 19:35:18 67° SSE 19:40:02 27° ENE
Okean O Rocket 3.8 19:34:03 10° SSW 19:37:38 25° W 19:41:15 10° NW
SJ-6B 3.3 19:37:27 29° SSW 19:39:03 53° W 19:42:45 10° NNW
BREEZE M DEB (TANK) 4.0 19:35:01 10° SW 19:38:08 22° S 19:38:08 22° S
Cosmos 2322 Rocket 4.2 19:43:56 13° NE 19:43:56 13° NE 19:44:34 10° NE
Cosmos 2026 Rocket 3.8 19:33:39 10° S 19:39:37 65° E 19:45:38 10° NNE
BREEZE-M DEB (TANK) 4.4 19:37:48 10° WSW 19:39:57 22° SSW 19:39:57 22° SSW
JB-3 4.2 19:37:14 10° NNE 19:41:21 86° ESE 19:42:18 52° S
CSL-04 Rocket 3.9 19:38:43 16° S 19:42:55 65° WSW 19:48:18 10° NNW
Cosmos 1553 Rocket 4.2 19:36:59 10° N 19:43:08 51° ENE 19:44:28 44° ESE
Cosmos 1908 Rocket 3.9 19:39:04 10° SSW 19:43:22 64° WNW 19:47:41 10° N
Nadezhda 4 Rocket 4.5 19:40:04 10° SSW 19:46:19 62° WNW 19:52:37 10° N
MetOp-A 3.4 19:48:59 64° N 19:48:59 64° N 19:52:21 10° NNW
Cosmos 1980 Rocket 3.1 19:43:28 10° SW 19:48:54 48° NW 19:54:21 10° NNE
Cosmos 968 Rocket 3.3 19:45:28 10° SSW 19:50:43 75° ESE 19:55:58 10° NNE
Cosmos 1782 Rocket 3.4 19:50:50 84° E 19:50:50 84° E 19:55:10 10° N
Landsat 5 4.4 19:50:00 10° N 19:54:23 53° WNW 19:58:45 10° SW
OBJECT-B 3.3 19:56:16 15° W 19:56:23 15° W 19:57:59 10° NW
Meteor 1-24 Rocket 3.7 19:53:14 10° NNW 19:58:33 72° W 20:00:31 39° S
Landsat 7 4.1 19:58:02 40° SSW 19:59:32 62° WSW 20:04:14 10° NNW
Cosmos 1437 Rocket 3.4 20:00:08 47° WSW 20:00:37 50° WNW 20:04:17 10° N
ATLAS 2AS CENTAUR R/B 4.4 19:54:34 10° NW 20:00:39 26° N 20:05:21 14° NE
Spot 2 4.2 20:01:39 62° N 20:01:39 62° N 20:05:13 10° NNW
Ariane Rocket 3.3 20:02:33 49° NE 20:02:33 49° NE 20:06:57 10° N
Cosmos 2278 4.1 19:56:29 10° SW 20:02:08 64° WNW 20:07:49 10° NNE
SL-4 R/B 2.5 19:58:12 10° WNW 20:02:29 63° SW 20:02:29 63° SW
SL-16 R/B 2.0 20:00:17 10° SSW 20:05:56 74° ESE 20:11:37 10° NNE
ERS-1 Rocket 4.5 20:07:59 24° NE 20:07:59 24° NE 20:10:47 10° N
H-2A R/B 3.0 20:08:58 54° NW 20:08:58 54° NW 20:12:13 10° NNW
Meteor 1-22 Rocket 4.3 20:03:50 10° SSW 20:09:11 71° WNW 20:14:46 10° N
ISS -1.2 20:08:10 10° W 20:09:34 19° WSW 20:09:34 19° WSW
MOS 1 4.2 20:10:30 66° SSE 20:11:21 88° WSW 20:17:04 10° NNW
Cosmos 1025 Rocket 3.6 20:11:03 10° NNW 20:14:55 56° WNW 20:14:55 56° WNW
Cosmos 1844 Rocket 2.5 20:10:13 10° NNW 20:15:56 80° ENE 20:16:00 80° ENE
Cosmos 2278 Rocket 3.9 20:13:25 10° N 20:17:26 20° NE 20:17:26 20° NE
Resurs 01 Rocket 2.1 20:19:37 58° NW 20:19:37 58° NW 20:23:21 10° NNW
Cosmos 1975 Rocket 3.8 20:16:31 10° NNW 20:20:46 50° W 20:20:46 50° W
Terra 3.7 20:23:50 20° NNE 20:23:50 20° NNE 20:25:47 10° N
SPOT 5 4.2 20:32:25 31° NNE 20:32:25 31° NNE 20:35:07 10° N
Cosmos 1943 Rocket 4.5 20:29:53 10° N 20:31:48 12° NNE 20:32:30 11° NNE
Cosmos 2263 Rocket 4.4 20:28:11 10° NW 20:32:11 20° W 20:36:03 10° SW
USA 215 4.0 20:31:46 34° NE 20:34:01 46° N 20:40:12 10° WNW
Cosmos 1844 3.8 20:28:43 10° NNW 20:33:42 72° NNW 20:33:42 72° NNW
S3M 4.1 20:45:19 10° N 20:50:54 72° NNW 20:50:54 72° NNW
Cosmos 2360 Rocket 4.5 21:02:36 14° NNE 21:02:36 14° NNE 21:03:17 10° NNE
USA 281 3.3 21:06:58 69° N 21:06:58 69° N 21:12:41 10° NNW
Cosmos 2322 Rocket 3.7 21:25:40 31° N 21:25:40 31° N 21:28:52 10° NNE
SL-16 R/B 4.1 21:45:56 10° W 21:50:38 26° NW 21:55:20 10° NNE
ATLAS 2AS CENTAUR R/B 3.8 21:46:49 10° NW 21:52:45 38° NNE 21:52:45 38° NNE
Terra 4.5 22:02:43 17° NNW 22:02:43 17° NNW 22:03:51 10° NNW
Cosmos 2278 Rocket 4.1 21:56:50 10° NNW 21:59:16 26° NNW 21:59:16 26° NNW
USA 215 4.4 22:19:07 38° NW 22:19:07 38° NW 22:23:02 10° WNW
Cosmos 1943 Rocket 4.4 22:12:07 10° NNW 22:14:00 20° N 22:14:00 20° N
